Weather History for Eastsound, WA

Change the Weather History Date:

Friday, April 26, 2013

  Actual Average (KBLI) Record (KBLI)
Temperature  
Mean Temperature 52 °F 50 °F  
Max Temperature 57 °F 59 °F 74 °F (1987)
Min Temperature 46 °F 41 °F 31 °F (1969)
Degree Days  
Heating Degree Days 14 15  
Month to date heating degree days 438  
Cooling Degree Days 0 0  
Month to date cooling degree days 0  
Year to date cooling degree days 0  
Growing Degree Days 2 (Base 50)    
Moisture  
Dew Point 43 °F    
Average Humidity 75    
Maximum Humidity 93    
Minimum Humidity 48    
Precipitation  
Precipitation 0.00 in 0.08 in 0.39 in (1985)
Month to date precipitation 2.38  
Year to date precipitation 13.29  
Sea Level Pressure  
Sea Level Pressure 30.18 in    
Wind  
Wind Speed 11 mph (South)    
Max Wind Speed 15 mph    
Max Gust Speed 22 mph    
Visibility 10 miles    
Events      
T = Trace of Precipitation, MM = Missing Value Source: NWS Daily Summary

Daily Weather History Graph

Daily Weather History Graph

Search for Another Location

Airport:

Trip Planner

Search our weather history database for the weather conditions in past years. The results will help you decide how hot, cold, wet, or windy it might be!

Date:

Astronomy

Apr. 26, 2013 Rise Set
Actual Time 5:59 AM PDT 8:20 PM PDT
Civil Twilight 5:25 AM PDT 8:54 PM PDT
Nautical Twilight 4:41 AM PDT 9:38 PM PDT
Astronomical Twilight 3:52 AM PDT 10:28 PM PDT
Moon 9:56 PM PDT (4/26) 6:26 AM PDT (4/26)
Length of Visible Light 15h 29m
Length of Day
14h 20m
Full, 99% of the Moon is Illuminated
Apr 26
Full
May 2
Last Quarter
May 9
New
May 17
First Quarter
May 24
Full

Hourly Weather History & Observations

Time (PDT) Temp. Windchill Dew Point Humidity Pressure Visibility Wind Dir Wind Speed Gust Speed Precip Events Conditions
12:15 AM 48.2 °F - 44.6 °F 87% 30.11 in 10.0 mi South 11.5 mph - N/A   Clear
12:35 AM 48.2 °F - 44.6 °F 87% 30.11 in 10.0 mi South 9.2 mph 16.1 mph N/A   Clear
12:55 AM 48.2 °F - 44.6 °F 87% 30.11 in 10.0 mi South 10.4 mph 16.1 mph N/A   Clear
1:15 AM 48.2 °F - 44.6 °F 87% 30.13 in 10.0 mi South 15.0 mph 20.7 mph N/A   Clear
1:55 AM 48.2 °F - 42.8 °F 82% 30.13 in 10.0 mi South 9.2 mph - N/A   Clear
2:15 AM 48.2 °F - 44.6 °F 87% 30.13 in 10.0 mi South 12.7 mph - N/A   Clear
2:35 AM 46.4 °F 40.7 °F 44.6 °F 93% 30.13 in 10.0 mi SSW 12.7 mph - N/A   Clear
2:55 AM 46.4 °F 41.1 °F 44.6 °F 93% 30.13 in 10.0 mi SSW 11.5 mph 16.1 mph N/A   Clear
3:15 AM 46.4 °F 41.5 °F 44.6 °F 93% 30.14 in 10.0 mi South 10.4 mph 16.1 mph N/A   Clear
3:35 AM 46.4 °F 41.5 °F 44.6 °F 93% 30.14 in 10.0 mi South 10.4 mph - N/A   Clear
3:55 AM 46.4 °F 40.4 °F 42.8 °F 87% 30.14 in 10.0 mi South 13.8 mph - N/A   Clear
4:15 AM 46.4 °F 40.7 °F 42.8 °F 87% 30.15 in 10.0 mi SSW 12.7 mph 17.3 mph N/A   Clear
4:55 AM 46.4 °F 41.5 °F 44.6 °F 93% 30.16 in 10.0 mi South 10.4 mph 17.3 mph N/A   Clear
5:15 AM 46.4 °F 40.7 °F 44.6 °F 93% 30.16 in 10.0 mi South 12.7 mph 16.1 mph N/A   Clear
5:35 AM 46.4 °F 41.9 °F 44.6 °F 93% 30.17 in 10.0 mi South 9.2 mph 16.1 mph N/A   Clear
5:55 AM 46.4 °F 41.5 °F 42.8 °F 87% 30.17 in 10.0 mi South 10.4 mph 16.1 mph N/A   Clear
6:15 AM 46.4 °F 42.4 °F 44.6 °F 93% 30.17 in 8.0 mi South 8.1 mph - N/A   Clear
6:35 AM 46.4 °F 41.1 °F 44.6 °F 93% 30.17 in 8.0 mi South 11.5 mph - N/A   Clear
6:55 AM 46.4 °F 40.7 °F 44.6 °F 93% 30.18 in 8.0 mi South 12.7 mph 17.3 mph N/A   Clear
7:15 AM 46.4 °F 40.1 °F 44.6 °F 93% 30.17 in 9.0 mi SSW 15.0 mph - N/A   Clear
7:35 AM 48.2 °F - 44.6 °F 87% 30.17 in 9.0 mi South 12.7 mph 20.7 mph N/A   Clear
7:55 AM 48.2 °F - 44.6 °F 87% 30.18 in 9.0 mi South 10.4 mph 20.7 mph N/A   Clear
8:15 AM 50.0 °F - 44.6 °F 82% 30.19 in 9.0 mi South 10.4 mph 18.4 mph N/A   Clear
8:35 AM 50.0 °F - 44.6 °F 82% 30.18 in 8.0 mi South 15.0 mph 20.7 mph N/A   Clear
9:15 AM 50.0 °F - 44.6 °F 82% 30.19 in 9.0 mi South 11.5 mph 17.3 mph N/A   Clear
9:35 AM 50.0 °F - 44.6 °F 82% 30.20 in 8.0 mi South 13.8 mph 21.9 mph N/A   Clear
9:55 AM 50.0 °F - 44.6 °F 82% 30.20 in 8.0 mi South 11.5 mph 18.4 mph N/A   Clear
10:15 AM 50.0 °F - 44.6 °F 82% 30.20 in 8.0 mi South 11.5 mph 19.6 mph N/A   Clear
10:35 AM 50.0 °F - 44.6 °F 82% 30.21 in 8.0 mi South 10.4 mph 19.6 mph N/A   Clear
10:55 AM 50.0 °F - 44.6 °F 82% 30.21 in 9.0 mi South 13.8 mph 21.9 mph N/A   Clear
11:15 AM 50.0 °F - 44.6 °F 82% 30.23 in 9.0 mi South 11.5 mph 20.7 mph N/A   Clear
11:35 AM 50.0 °F - 46.4 °F 87% 30.22 in 9.0 mi South 12.7 mph 17.3 mph N/A   Clear
11:55 AM 50.0 °F - 46.4 °F 87% 30.23 in 8.0 mi South 12.7 mph 18.4 mph N/A   Clear
12:15 PM 53.6 °F - 46.4 °F 77% 30.22 in 9.0 mi South 12.7 mph 18.4 mph N/A   Clear
12:35 PM 55.4 °F - 46.4 °F 72% 30.23 in 10.0 mi South 10.4 mph - N/A   Clear
12:55 PM 53.6 °F - 46.4 °F 77% 30.23 in 9.0 mi South 10.4 mph - N/A   Clear
1:15 PM 53.6 °F - 46.4 °F 77% 30.22 in 10.0 mi South 10.4 mph 16.1 mph N/A   Clear
1:35 PM 53.6 °F - 46.4 °F 77% 30.22 in 10.0 mi South 9.2 mph - N/A   Clear
1:55 PM 53.6 °F - 46.4 °F 77% 30.22 in 9.0 mi South 13.8 mph 17.3 mph N/A   Clear
2:15 PM 53.6 °F - 46.4 °F 77% 30.22 in 9.0 mi South 11.5 mph 16.1 mph N/A   Clear
2:35 PM 55.4 °F - 46.4 °F 72% 30.21 in 9.0 mi South 6.9 mph 16.1 mph N/A   Clear
2:55 PM 55.4 °F - 46.4 °F 72% 30.21 in 10.0 mi South 10.4 mph 17.3 mph N/A   Clear
3:15 PM 55.4 °F - 41.0 °F 58% 30.21 in 10.0 mi South 11.5 mph - N/A   Clear
3:35 PM 57.2 °F - 39.2 °F 51% 30.20 in 10.0 mi South 8.1 mph 17.3 mph N/A   Clear
3:55 PM 57.2 °F - 39.2 °F 51% 30.20 in 10.0 mi South 8.1 mph 17.3 mph N/A   Clear
4:15 PM 57.2 °F - 37.4 °F 48% 30.19 in 10.0 mi South 10.4 mph - N/A   Clear
4:35 PM 57.2 °F - 37.4 °F 48% 30.19 in 10.0 mi South 9.2 mph - N/A   Clear
5:15 PM 57.2 °F - 39.2 °F 51% 30.19 in 10.0 mi South 8.1 mph - N/A   Clear
5:35 PM 57.2 °F - 39.2 °F 51% 30.18 in 10.0 mi SSW 8.1 mph - N/A   Clear
5:55 PM 57.2 °F - 41.0 °F 55% 30.18 in 10.0 mi SSW 9.2 mph - N/A   Clear
6:15 PM 57.2 °F - 41.0 °F 55% 30.18 in 10.0 mi SSW 9.2 mph - N/A   Clear
6:35 PM 57.2 °F - 41.0 °F 55% 30.18 in 10.0 mi SSW 10.4 mph - N/A   Clear
6:55 PM 57.2 °F - 41.0 °F 55% 30.18 in 10.0 mi South 8.1 mph - N/A   Clear
7:15 PM 57.2 °F - 41.0 °F 55% 30.16 in 10.0 mi South 6.9 mph - N/A   Partly Cloudy
7:55 PM 55.4 °F - 41.0 °F 58% 30.16 in 10.0 mi South 8.1 mph - N/A   Clear
8:15 PM 55.4 °F - 41.0 °F 58% 30.16 in 10.0 mi South 8.1 mph - N/A   Clear
8:35 PM 55.4 °F - 41.0 °F 58% 30.17 in 10.0 mi SSW 5.8 mph - N/A   Clear
8:55 PM 55.4 °F - 41.0 °F 58% 30.17 in 10.0 mi Calm Calm - N/A   Clear
9:15 PM 55.4 °F - 41.0 °F 58% 30.17 in 10.0 mi SSW 5.8 mph - N/A   Clear
9:35 PM 55.4 °F - 42.8 °F 63% 30.17 in 10.0 mi South 6.9 mph - N/A   Clear
9:55 PM 55.4 °F - 41.0 °F 58% 30.18 in 10.0 mi South 9.2 mph - N/A   Clear
10:15 PM 53.6 °F - 44.6 °F 72% 30.18 in 10.0 mi South 9.2 mph - N/A   Clear
10:35 PM 53.6 °F - 42.8 °F 67% 30.18 in 10.0 mi SSW 9.2 mph - N/A   Clear
10:55 PM 53.6 °F - 42.8 °F 67% 30.17 in 10.0 mi South 6.9 mph - N/A   Clear
11:15 PM 53.6 °F - 42.8 °F 67% 30.17 in 10.0 mi SSW 10.4 mph - N/A   Clear
11:35 PM 53.6 °F - 42.8 °F 67% 30.17 in 10.0 mi South 9.2 mph - N/A   Clear
11:55 PM 53.6 °F - 42.8 °F 67% 30.17 in 10.0 mi South 4.6 mph - N/A   Clear